Torna al catalogo

CONTINUUM-1

AttivoScienzaSSO
NORAD 55045·PAYLOAD·🇦🇺 Australia

Lanciato Jan 3, 2023 da Cape Canaveral Space Force Station

Loading…

Prossimi Passaggi (prossime 24 ore)

TLE

AggiornatoSource: Space-Track

Epoca: Sep 14, 2026, 14:38 UTC

1 55045U 23001AN  26257.60986469  .00009443  00000-0  29605-3 0  9990
2 55045  97.3270 319.7634 0009797 124.3135 235.9036 15.33231282205941

Traccia CONTINUUM-1 in tempo reale con AllMySat

Download on the App Store